Powrót do katalogu

STARLINK-6048

AktywnyŁącznośćVLEO
NORAD 56459·PAYLOAD·🇺🇸 United States

Wystrzelony May 10, 2023 z Vandenberg Space Force Base

Loading…

Następne Przeloty (najbliższe 24 godziny)

TLE

ŚwieżeSource: CelesTrak SupGP

Epoka: Sep 14, 2026, 20:39 UTC

1 56459C 23064M   26257.86090278  .00010844  00000+0  90874-3 0  2570
2 56459  70.0031  27.3554 0003257 270.0025 150.8642 14.98325462    12

Śledź STARLINK-6048 w czasie rzeczywistym z AllMySat

Download on the App Store